QPF
0.01 0.01 0.04 0.10 0.16 0.20 0.22 0.15 0.06 0.06 0.03 0.01 0.01 0.00 0.02 0.06 0.09 0.11 0.08 0.04 0.01 0.01 0.01 0.01 0.02 0.03 0.04 0.04 0.04 0.03 0.03 0.02 0.02 0.03 0.04 0.04 0.03 0.03 0.02 0.02 0.03 0.04 0.04 0.03 0.02 0.01 0.01 0.01 0.02
0.02 0.05 0.07 0.13 0.17 0.20 0.21 0.12 0.09 0.07 0.02 0.00 0.00 0.01 0.03 0.06 0.03 0.04 0.06 0.02 0.00 0.02 0.02 0.01 0.02 0.02 0.03 0.03 0.02 0.02 0.02 0.03 0.02 0.02 0.02 0.02 0.02 0.03 0.03 0.03 0.03 0.04 0.03 0.03 0.03 0.03 0.02 0.02 0.02
0.02 0.04 0.09 0.15 0.17 0.17 0.17 0.10 0.05 0.01 0.00 0.00 0.01 0.02 0.02 0.04 0.03 0.04 0.04 0.01 0.00 0.01 0.02 0.01 0.02 0.02 0.02 0.02 0.02 0.03 0.03 0.03 0.02 0.01 0.02 0.01 0.01 0.01 0.01 0.02 0.02 0.01 0.01 0.01 0.02 0.03 0.03 0.03 0.03
0.04 0.06 0.08 0.12 0.14 0.08 0.05 0.03 0.01 0.01 0.01 0.00 0.01 0.02 0.02 0.04 0.02 0.02 0.01 0.00 0.00 0.00 0.01 0.01 0.01 0.01 0.01 0.01 0.02 0.02 0.02 0.02 0.01 0.01 0.01 0.01 0.01 0.01 0.01 0.01 0.01 0.01 0.01 0.00 0.01 0.02 0.03 0.03 0.03
0.08 0.10 0.10 0.11 0.10 0.04 0.01 0.01 0.00 0.02 0.02 0.02 0.02 0.02 0.03 0.04 0.01 0.01 0.00 0.00 0.00 0.01 0.00 0.00 0.00 0.00 0.01 0.01 0.01 0.01 0.01 0.01 0.01 0.01 0.01 0.01 0.00 0.00 0.00 0.01 0.01 0.01 0.01 0.01 0.01 0.01 0.02 0.02 0.03
0.13 0.12 0.11 0.11 0.10 0.03 0.01 0.00 0.01 0.03 0.03 0.02 0.02 0.04 0.05 0.05 0.02 0.01 0.00 0.00 0.00 0.00 0.00 0.00 0.00 0.00 0.00 0.00 0.00 0.00 0.00 0.00 0.00 0.00 0.00 0.00 0.00 0.00 0.00 0.00 0.00 0.00 0.00 0.00 0.01 0.01 0.01 0.01 0.02
0.14 0.14 0.11 0.09 0.11 0.06 0.01 0.00 0.01 0.03 0.04 0.02 0.02 0.06 0.06 0.05 0.02 0.00 0.00 0.00 0.00 0.00 0.00 0.00 0.00 0.00 0.00 0.00 0.00 0.00 0.00 0.00 0.00 0.00 0.00 0.00 0.00 0.00 0.00 0.00 0.00 0.00 0.00 0.01 0.01 0.01 0.01 0.01 0.02
0.11 0.15 0.11 0.09 0.11 0.09 0.01 0.00 0.01 0.02 0.02 0.01 0.01 0.05 0.08 0.03 0.00 0.00 0.00 0.00 0.00 0.00 0.00 0.00 0.00 0.00 0.00 0.00 0.00 0.00 0.00 0.00 0.00 0.00 0.00 0.00 0.00 0.00 0.00 0.00 0.00 0.00 0.00 0.00 0.00 0.00 0.00 0.00 0.01
0.12 0.18 0.17 0.11 0.11 0.09 0.01 0.02 0.02 0.01 0.01 0.01 0.01 0.01 0.02 0.01 0.00 0.01 0.02 0.02 0.01 0.00 0.00 0.00 0.00 0.00 0.00 0.00 0.00 0.00 0.00 0.00 0.00 0.00 0.00 0.00 0.00 0.00 0.00 0.00 0.00 0.00 0.00 0.00 0.00 0.00 0.00 0.00 0.00
0.17 0.19 0.13 0.07 0.04 0.03 0.01 0.03 0.02 0.02 0.04 0.05 0.03 0.02 0.02 0.02 0.01 0.02 0.03 0.02 0.00 0.00 0.00 0.00 0.00 0.00 0.00 0.00 0.00 0.00 0.00 0.00 0.00 0.00 0.00 0.00 0.00 0.00 0.00 0.00 0.00 0.00 0.00 0.00 0.00 0.00 0.00 0.00 0.01
0.11 0.12 0.08 0.05 0.02 0.00 0.00 0.01 0.01 0.02 0.07 0.05 0.04 0.02 0.01 0.01 0.02 0.01 0.01 0.01 0.00 0.00 0.00 0.00 0.00 0.00 0.00 0.00 0.00 0.00 0.00 0.00 0.00 0.00 0.00 0.00 0.00 0.00 0.00 0.00 0.00 0.00 0.00 0.00 0.01 0.00 0.00 0.00 0.01
0.08 0.05 0.04 0.04 0.01 0.00 0.01 0.01 0.01 0.02 0.05 0.03 0.02 0.01 0.01 0.01 0.01 0.01 0.01 0.00 0.00 0.00 0.00 0.00 0.00 0.00 0.00 0.00 0.00 0.00 0.00 0.00 0.00 0.00 0.00 0.00 0.00 0.00 0.00 0.00 0.00 0.00 0.00 0.01 0.01 0.00 0.00 0.00 0.01
0.06 0.03 0.01 0.01 0.00 0.00 0.01 0.00 0.00 0.01 0.01 0.01 0.02 0.01 0.01 0.00 0.01 0.00 0.00 0.00 0.00 0.00 0.00 0.00 0.00 0.00 0.00 0.00 0.00 0.00 0.00 0.00 0.00 0.00 0.00 0.00 0.00 0.00 0.00 0.00 0.00 0.00 0.00 0.00 0.00 0.00 0.00 0.00 0.00
0.03 0.01 0.00 0.00 0.00 0.00 0.01 0.01 0.00 0.01 0.01 0.01 0.02 0.03 0.02 0.01 0.00 0.00 0.00 0.00 0.00 0.00 0.00 0.00 0.00 0.00 0.00 0.00 0.00 0.00 0.00 0.00 0.00 0.00 0.00 0.00 0.00 0.00 0.01 0.01 0.01 0.01 0.01 0.01 0.01 0.00 0.00 0.00 0.01
0.01 0.01 0.01 0.01 0.00 0.00 0.02 0.04 0.02 0.01 0.01 0.01 0.01 0.01 0.01 0.00 0.00 0.00 0.00 0.00 0.00 0.00 0.00 0.00 0.00 0.00 0.00 0.00 0.00 0.00 0.00 0.00 0.00 0.00 0.00 0.00 0.00 0.00 0.01 0.02 0.02 0.01 0.01 0.01 0.01 0.01 0.02 0.02 0.02
0.01 0.02 0.04 0.01 0.01 0.00 0.03 0.07 0.03 0.01 0.01 0.02 0.03 0.01 0.00 0.00 0.00 0.00 0.00 0.01 0.01 0.00 0.00 0.00 0.00 0.00 0.00 0.00 0.00 0.00 0.00 0.00 0.00 0.00 0.00 0.00 0.00 0.00 0.01 0.01 0.01 0.01 0.02 0.01 0.01 0.02 0.04 0.05 0.05
0.02 0.03 0.03 0.01 0.00 0.00 0.02 0.04 0.02 0.01 0.01 0.02 0.02 0.02 0.00 0.00 0.00 0.00 0.00 0.00 0.00 0.00 0.00 0.00 0.00 0.00 0.00 0.00 0.00 0.00 0.00 0.00 0.00 0.00 0.00 0.00 0.00 0.00 0.01 0.01 0.02 0.02 0.02 0.02 0.01 0.02 0.04 0.07 0.07
0.03 0.01 0.01 0.01 0.00 0.00 0.01 0.01 0.01 0.00 0.00 0.01 0.01 0.01 0.01 0.00 0.00 0.00 0.00 0.00 0.00 0.00 0.00 0.00 0.00 0.00 0.00 0.00 0.00 0.00 0.00 0.00 0.00 0.00 0.00 0.01 0.00 0.00 0.00 0.01 0.01 0.02 0.02 0.02 0.02 0.03 0.04 0.07 0.07
0.01 0.02 0.02 0.00 0.00 0.00 0.01 0.01 0.01 0.00 0.01 0.01 0.00 0.01 0.01 0.01 0.01 0.00 0.00 0.00 0.00 0.00 0.00 0.00 0.00 0.00 0.00 0.00 0.00 0.00 0.00 0.00 0.00 0.00 0.00 0.01 0.00 0.00 0.00 0.00 0.01 0.01 0.02 0.02 0.03 0.03 0.05 0.07 0.08
0.01 0.01 0.01 0.00 0.00 0.01 0.01 0.01 0.01 0.01 0.01 0.01 0.01 0.01 0.00 0.00 0.01 0.01 0.02 0.01 0.00 0.00 0.00 0.00 0.00 0.00 0.00 0.00 0.00 0.00 0.00 0.00 0.00 0.00 0.00 0.00 0.00 0.00 0.00 0.00 0.00 0.01 0.02 0.03 0.04 0.05 0.06 0.07 0.07
0.01 0.01 0.01 0.00 0.00 0.01 0.01 0.01 0.01 0.00 0.00 0.00 0.01 0.01 0.01 0.00 0.00 0.01 0.01 0.02 0.01 0.01 0.00 0.00 0.00 0.00 0.00 0.00 0.00 0.00 0.00 0.00 0.00 0.00 0.00 0.00 0.00 0.00 0.00 0.00 0.00 0.00 0.01 0.02 0.03 0.04 0.04 0.06 0.08
0.02 0.01 0.01 0.00 0.00 0.00 0.01 0.02 0.01 0.00 0.00 0.00 0.00 0.00 0.01 0.01 0.00 0.00 0.01 0.02 0.01 0.00 0.00 0.00 0.00 0.00 0.00 0.00 0.00 0.00 0.00 0.00 0.00 0.00 0.00 0.00 0.00 0.00 0.00 0.00 0.00 0.00 0.01 0.02 0.02 0.03 0.03 0.04 0.08
0.02 0.01 0.01 0.01 0.01 0.01 0.01 0.01 0.01 0.00 0.00 0.00 0.00 0.00 0.00 0.00 0.01 0.01 0.00 0.00 0.00 0.00 0.00 0.00 0.00 0.00 0.00 0.00 0.00 0.00 0.00 0.00 0.00 0.00 0.00 0.00 0.00 0.00 0.00 0.00 0.00 0.00 0.00 0.01 0.02 0.03 0.04 0.05 0.06
0.01 0.01 0.01 0.01 0.02 0.04 0.01 0.01 0.01 0.01 0.00 0.00 0.00 0.00 0.00 0.00 0.00 0.00 0.00 0.00 0.00 0.00 0.00 0.00 0.00 0.00 0.00 0.00 0.00 0.00 0.00 0.00 0.00 0.00 0.00 0.00 0.00 0.00 0.00 0.00 0.00 0.00 0.00 0.01 0.01 0.03 0.04 0.04 0.03
0.00 0.01 0.03 0.05 0.08 0.06 0.01 0.00 0.00 0.00 0.00 0.00 0.00 0.00 0.00 0.00 0.00 0.00 0.00 0.00 0.00 0.00 0.00 0.00 0.00 0.00 0.00 0.00 0.00 0.00 0.00 0.00 0.00 0.00 0.00 0.00 0.00 0.00 0.00 0.00 0.00 0.00 0.00 0.01 0.01 0.02 0.04 0.04 0.03
0.01 0.02 0.06 0.09 0.07 0.03 0.00 0.00 0.00 0.00 0.00 0.00 0.00 0.00 0.00 0.00 0.00 0.00 0.00 0.00 0.00 0.00 0.00 0.00 0.00 0.00 0.00 0.00 0.00 0.00 0.00 0.00 0.00 0.00 0.00 0.00 0.00 0.00 0.00 0.00 0.00 0.00 0.00 0.01 0.01 0.02 0.02 0.02 0.02
0.01 0.02 0.04 0.04 0.02 0.01 0.00 0.00 0.00 0.00 0.00 0.00 0.00 0.00 0.00 0.00 0.00 0.00 0.00 0.00 0.00 0.00 0.00 0.00 0.00 0.00 0.00 0.00 0.00 0.00 0.00 0.00 0.00 0.00 0.00 0.00 0.00 0.00 0.00 0.00 0.00 0.00 0.00 0.00 0.00 0.01 0.02 0.02 0.02
0.01 0.01 0.02 0.02 0.02 0.01 0.00 0.00 0.00 0.00 0.00 0.00 0.00 0.00 0.00 0.00 0.00 0.00 0.00 0.00 0.00 0.00 0.00 0.00 0.00 0.00 0.00 0.00 0.00 0.00 0.00 0.00 0.00 0.00 0.00 0.00 0.00 0.00 0.00 0.00 0.00 0.00 0.00 0.00 0.00 0.01 0.01 0.01 0.01
0.00 0.00 0.02 0.01 0.00 0.01 0.00 0.00 0.00 0.00 0.00 0.00 0.00 0.00 0.00 0.00 0.00 0.00 0.00 0.00 0.00 0.00 0.00 0.00 0.00 0.00 0.00 0.00 0.00 0.00 0.00 0.00 0.00 0.00 0.00 0.00 0.00 0.00 0.00 0.00 0.00 0.00 0.00 0.00 0.00 0.00 0.01 0.02 0.02
0.00 0.00 0.00 0.00 0.00 0.00 0.00 0.00 0.00 0.00 0.00 0.00 0.00 0.00 0.00 0.00 0.00 0.00 0.00 0.00 0.00 0.00 0.00 0.00 0.00 0.00 0.00 0.00 0.00 0.00 0.00 0.00 0.00 0.00 0.00 0.00 0.00 0.00 0.00 0.00 0.00 0.00 0.00 0.00 0.00 0.00 0.00 0.00 0.00
MSLP
1008.53 1009.09 1009.82 1010.63 1011.39 1011.98 1012.29 1012.28 1011.97 1011.45 1010.85 1010.32 1009.98 1009.89 1010.04 1010.36 1010.76 1011.10 1011.29 1011.30 1011.15 1010.92 1010.70 1010.58 1010.63 1010.83 1011.16 1011.52 1011.83 1012.03 1012.11 1012.08 1012.01 1011.96 1011.99 1012.14 1012.38 1012.66 1012.93 1013.12 1013.20 1013.16 1013.04 1012.89 1012.77 1012.72 1012.74 1012.81 1012.90
1008.86 1009.55 1010.35 1011.14 1011.81 1012.25 1012.37 1012.17 1011.69 1011.05 1010.39 1009.87 1009.57 1009.55 1009.77 1010.15 1010.58 1010.92 1011.12 1011.13 1011.00 1010.82 1010.67 1010.65 1010.78 1011.07 1011.45 1011.84 1012.16 1012.36 1012.41 1012.37 1012.29 1012.24 1012.28 1012.42 1012.65 1012.91 1013.14 1013.28 1013.30 1013.22 1013.07 1012.92 1012.80 1012.75 1012.78 1012.85 1012.93
1009.29 1010.06 1010.87 1011.60 1012.14 1012.39 1012.31 1011.92 1011.30 1010.57 1009.90 1009.41 1009.17 1009.22 1009.51 1009.93 1010.36 1010.70 1010.88 1010.91 1010.81 1010.69 1010.63 1010.71 1010.95 1011.32 1011.76 1012.18 1012.50 1012.69 1012.73 1012.68 1012.59 1012.53 1012.57 1012.69 1012.89 1013.10 1013.28 1013.36 1013.33 1013.22 1013.05 1012.90 1012.79 1012.77 1012.82 1012.90 1012.97
1009.77 1010.57 1011.33 1011.96 1012.33 1012.39 1012.14 1011.60 1010.89 1010.14 1009.50 1009.07 1008.92 1009.04 1009.37 1009.80 1010.22 1010.54 1010.70 1010.71 1010.65 1010.60 1010.63 1010.80 1011.14 1011.58 1012.07 1012.51 1012.83 1013.00 1013.03 1012.96 1012.86 1012.80 1012.82 1012.92 1013.08 1013.24 1013.35 1013.37 1013.30 1013.15 1012.99 1012.85 1012.77 1012.78 1012.86 1012.95 1013.02
1010.26 1011.02 1011.70 1012.18 1012.39 1012.28 1011.89 1011.27 1010.54 1009.83 1009.28 1008.96 1008.91 1009.10 1009.46 1009.88 1010.26 1010.51 1010.63 1010.63 1010.58 1010.58 1010.68 1010.94 1011.35 1011.85 1012.36 1012.80 1013.10 1013.25 1013.25 1013.17 1013.06 1012.99 1013.00 1013.07 1013.19 1013.30 1013.35 1013.32 1013.21 1013.05 1012.89 1012.77 1012.74 1012.78 1012.89 1012.99 1013.06
1010.69 1011.38 1011.93 1012.25 1012.30 1012.07 1011.60 1010.98 1010.30 1009.71 1009.29 1009.12 1009.18 1009.44 1009.81 1010.19 1010.49 1010.66 1010.71 1010.67 1010.62 1010.65 1010.80 1011.12 1011.57 1012.08 1012.59 1013.00 1013.27 1013.38 1013.35 1013.25 1013.14 1013.07 1013.07 1013.13 1013.21 1013.28 1013.29 1013.21 1013.07 1012.90 1012.76 1012.67 1012.67 1012.75 1012.87 1012.99 1013.04
1011.01 1011.59 1011.99 1012.17 1012.10 1011.79 1011.31 1010.74 1010.19 1009.77 1009.53 1009.51 1009.69 1010.00 1010.36 1010.67 1010.88 1010.96 1010.92 1010.83 1010.76 1010.79 1010.97 1011.30 1011.75 1012.25 1012.72 1013.08 1013.29 1013.35 1013.30 1013.18 1013.07 1013.01 1013.02 1013.08 1013.15 1013.19 1013.17 1013.07 1012.91 1012.74 1012.60 1012.53 1012.56 1012.66 1012.79 1012.91 1012.94
1011.21 1011.65 1011.91 1011.95 1011.79 1011.46 1011.03 1010.57 1010.19 1009.95 1009.91 1010.04 1010.31 1010.66 1010.99 1011.23 1011.33 1011.31 1011.18 1011.03 1010.93 1010.95 1011.13 1011.45 1011.87 1012.32 1012.72 1013.01 1013.15 1013.16 1013.08 1012.97 1012.87 1012.84 1012.87 1012.94 1013.01 1013.05 1013.01 1012.90 1012.73 1012.56 1012.42 1012.36 1012.40 1012.50 1012.63 1012.73 1012.74
1011.26 1011.57 1011.70 1011.65 1011.43 1011.12 1010.76 1010.45 1010.24 1010.20 1010.32 1010.58 1010.92 1011.27 1011.55 1011.71 1011.72 1011.59 1011.40 1011.20 1011.07 1011.08 1011.23 1011.52 1011.89 1012.28 1012.59 1012.80 1012.88 1012.84 1012.74 1012.64 1012.57 1012.57 1012.64 1012.75 1012.84 1012.89 1012.85 1012.73 1012.56 1012.38 1012.24 1012.18 1012.20 1012.29 1012.39 1012.46 1012.45
1011.21 1011.40 1011.42 1011.30 1011.06 1010.79 1010.53 1010.35 1010.31 1010.42 1010.67 1011.01 1011.38 1011.70 1011.93 1012.00 1011.93 1011.74 1011.49 1011.26 1011.13 1011.12 1011.26 1011.51 1011.82 1012.13 1012.36 1012.50 1012.51 1012.45 1012.34 1012.26 1012.23 1012.28 1012.40 1012.55 1012.67 1012.74 1012.71 1012.60 1012.43 1012.24 1012.09 1012.00 1011.99 1012.04 1012.11 1012.15 1012.11
1011.09 1011.19 1011.13 1010.96 1010.73 1010.50 1010.33 1010.27 1010.34 1010.55 1010.87 1011.24 1011.59 1011.87 1012.03 1012.04 1011.91 1011.68 1011.42 1011.20 1011.07 1011.07 1011.19 1011.41 1011.67 1011.91 1012.08 1012.16 1012.14 1012.06 1011.96 1011.91 1011.93 1012.03 1012.19 1012.38 1012.54 1012.63 1012.62 1012.52 1012.34 1012.15 1011.98 1011.86 1011.81 1011.81 1011.84 1011.83 1011.78
1010.96 1010.99 1010.89 1010.69 1010.48 1010.29 1010.18 1010.19 1010.32 1010.57 1010.89 1011.24 1011.55 1011.77 1011.86 1011.83 1011.67 1011.44 1011.20 1011.01 1010.91 1010.93 1011.05 1011.25 1011.48 1011.67 1011.80 1011.85 1011.82 1011.75 1011.68 1011.67 1011.73 1011.87 1012.07 1012.29 1012.47 1012.58 1012.59 1012.49 1012.33 1012.12 1011.93 1011.78 1011.69 1011.64 1011.61 1011.57 1011.50
1010.88 1010.86 1010.73 1010.53 1010.32 1010.16 1010.09 1010.12 1010.26 1010.49 1010.77 1011.05 1011.29 1011.44 1011.49 1011.42 1011.27 1011.08 1010.89 1010.75 1010.69 1010.74 1010.87 1011.06 1011.27 1011.45 1011.57 1011.62 1011.61 1011.57 1011.55 1011.58 1011.68 1011.85 1012.06 1012.28 1012.47 1012.59 1012.60 1012.52 1012.37 1012.17 1011.97 1011.79 1011.66 1011.56 1011.48 1011.41 1011.32
1010.87 1010.82 1010.67 1010.48 1010.29 1010.14 1010.07 1010.09 1010.19 1010.36 1010.55 1010.74 1010.90 1010.99 1011.00 1010.94 1010.83 1010.68 1010.55 1010.47 1010.46 1010.53 1010.67 1010.86 1011.07 1011.26 1011.40 1011.49 1011.53 1011.56 1011.59 1011.66 1011.78 1011.95 1012.16 1012.36 1012.53 1012.64 1012.66 1012.60 1012.46 1012.28 1012.08 1011.89 1011.72 1011.59 1011.47 1011.36 1011.25
1010.94 1010.87 1010.72 1010.53 1010.36 1010.22 1010.14 1010.12 1010.15 1010.23 1010.32 1010.42 1010.50 1010.54 1010.54 1010.50 1010.43 1010.34 1010.27 1010.23 1010.25 1010.33 1010.47 1010.67 1010.88 1011.10 1011.29 1011.45 1011.57 1011.68 1011.77 1011.88 1012.01 1012.16 1012.33 1012.49 1012.62 1012.71 1012.73 1012.68 1012.57 1012.42 1012.24 1012.05 1011.88 1011.71 1011.56 1011.43 1011.30
1011.04 1010.96 1010.83 1010.67 1010.52 1010.39 1010.29 1010.22 1010.18 1010.16 1010.16 1010.17 1010.18 1010.19 1010.19 1010.18 1010.15 1010.11 1010.08 1010.06 1010.08 1010.15 1010.28 1010.46 1010.68 1010.94 1011.20 1011.45 1011.68 1011.87 1012.04 1012.18 1012.31 1012.42 1012.53 1012.63 1012.71 1012.76 1012.78 1012.75 1012.68 1012.57 1012.43 1012.27 1012.09 1011.92 1011.74 1011.58 1011.43
1011.14 1011.07 1010.97 1010.86 1010.75 1010.64 1010.54 1010.43 1010.31 1010.21 1010.11 1010.04 1010.00 1009.99 1010.00 1010.02 1010.03 1010.02 1010.01 1009.98 1009.97 1009.99 1010.08 1010.23 1010.46 1010.75 1011.09 1011.45 1011.78 1012.08 1012.32 1012.50 1012.62 1012.69 1012.72 1012.75 1012.77 1012.78 1012.79 1012.80 1012.78 1012.72 1012.63 1012.51 1012.35 1012.16 1011.97 1011.78 1011.61
1011.19 1011.16 1011.12 1011.09 1011.04 1010.98 1010.88 1010.73 1010.56 1010.37 1010.20 1010.06 1009.98 1009.95 1009.97 1010.02 1010.05 1010.06 1010.03 1009.97 1009.90 1009.86 1009.87 1009.98 1010.20 1010.53 1010.95 1011.40 1011.85 1012.25 1012.57 1012.78 1012.89 1012.91 1012.88 1012.83 1012.79 1012.77 1012.78 1012.81 1012.84 1012.85 1012.82 1012.74 1012.60 1012.42 1012.21 1012.00 1011.81
1011.16 1011.20 1011.27 1011.34 1011.39 1011.38 1011.31 1011.15 1010.92 1010.67 1010.42 1010.22 1010.10 1010.06 1010.09 1010.15 1010.20 1010.20 1010.15 1010.03 1009.88 1009.75 1009.69 1009.74 1009.94 1010.29 1010.76 1011.30 1011.86 1012.35 1012.74 1012.98 1013.09 1013.08 1012.99 1012.88 1012.78 1012.73 1012.74 1012.80 1012.88 1012.95 1012.98 1012.94 1012.83 1012.65 1012.43 1012.21 1011.99
1011.06 1011.21 1011.41 1011.61 1011.78 1011.86 1011.82 1011.66 1011.39 1011.07 1010.75 1010.49 1010.33 1010.27 1010.30 1010.36 1010.42 1010.42 1010.33 1010.16 1009.93 1009.71 1009.56 1009.55 1009.71 1010.06 1010.57 1011.18 1011.81 1012.38 1012.83 1013.11 1013.22 1013.19 1013.06 1012.90 1012.77 1012.69 1012.71 1012.79 1012.91 1013.03 1013.10 1013.10 1013.01 1012.84 1012.62 1012.37 1012.15
1010.93 1011.20 1011.56 1011.92 1012.22 1012.40 1012.41 1012.25 1011.95 1011.56 1011.17 1010.85 1010.64 1010.55 1010.57 1010.64 1010.71 1010.71 1010.60 1010.38 1010.09 1009.79 1009.56 1009.47 1009.59 1009.91 1010.43 1011.07 1011.74 1012.37 1012.86 1013.17 1013.29 1013.25 1013.10 1012.92 1012.76 1012.68 1012.69 1012.78 1012.93 1013.08 1013.18 1013.20 1013.12 1012.96 1012.73 1012.49 1012.26
1010.79 1011.21 1011.73 1012.25 1012.69 1012.97 1013.03 1012.88 1012.54 1012.10 1011.64 1011.25 1010.99 1010.87 1010.88 1010.97 1011.05 1011.06 1010.95 1010.71 1010.38 1010.03 1009.73 1009.57 1009.62 1009.90 1010.39 1011.01 1011.69 1012.34 1012.85 1013.19 1013.32 1013.29 1013.14 1012.95 1012.78 1012.69 1012.70 1012.80 1012.95 1013.10 1013.21 1013.24 1013.17 1013.00 1012.78 1012.54 1012.32
1010.70 1011.25 1011.92 1012.59 1013.15 1013.52 1013.63 1013.49 1013.13 1012.64 1012.12 1011.67 1011.36 1011.22 1011.23 1011.33 1011.44 1011.48 1011.39 1011.17 1010.83 1010.45 1010.09 1009.87 1009.85 1010.05 1010.47 1011.04 1011.69 1012.31 1012.82 1013.16 1013.31 1013.30 1013.17 1012.99 1012.83 1012.73 1012.74 1012.82 1012.96 1013.10 1013.20 1013.21 1013.14 1012.97 1012.76 1012.53 1012.33
1010.65 1011.31 1012.09 1012.88 1013.55 1013.99 1014.15 1014.02 1013.65 1013.12 1012.56 1012.08 1011.74 1011.59 1011.60 1011.73 1011.88 1011.97 1011.93 1011.75 1011.42 1011.03 1010.64 1010.35 1010.24 1010.35 1010.66 1011.15 1011.71 1012.28 1012.76 1013.10 1013.26 1013.27 1013.17 1013.02 1012.88 1012.79 1012.78 1012.85 1012.96 1013.08 1013.15 1013.14 1013.05 1012.89 1012.68 1012.47 1012.30
1010.62 1011.34 1012.20 1013.06 1013.80 1014.30 1014.51 1014.40 1014.04 1013.51 1012.94 1012.44 1012.10 1011.95 1011.99 1012.15 1012.35 1012.50 1012.53 1012.39 1012.10 1011.71 1011.30 1010.95 1010.75 1010.74 1010.94 1011.29 1011.75 1012.24 1012.66 1012.98 1013.15 1013.19 1013.13 1013.01 1012.90 1012.83 1012.82 1012.87 1012.96 1013.03 1013.07 1013.04 1012.94 1012.78 1012.59 1012.41 1012.27
1010.57 1011.31 1012.19 1013.08 1013.86 1014.40 1014.64 1014.57 1014.25 1013.75 1013.21 1012.73 1012.42 1012.30 1012.37 1012.57 1012.82 1013.03 1013.12 1013.04 1012.79 1012.42 1011.98 1011.58 1011.29 1011.16 1011.22 1011.44 1011.77 1012.15 1012.51 1012.79 1012.97 1013.04 1013.02 1012.95 1012.88 1012.84 1012.84 1012.88 1012.93 1012.98 1012.99 1012.94 1012.84 1012.68 1012.51 1012.36 1012.26
1010.46 1011.17 1012.02 1012.90 1013.67 1014.22 1014.50 1014.49 1014.23 1013.80 1013.33 1012.92 1012.66 1012.59 1012.70 1012.95 1013.25 1013.51 1013.65 1013.61 1013.40 1013.04 1012.60 1012.15 1011.78 1011.55 1011.47 1011.55 1011.75 1012.02 1012.30 1012.55 1012.72 1012.81 1012.84 1012.83 1012.81 1012.80 1012.82 1012.86 1012.91 1012.94 1012.93 1012.88 1012.78 1012.64 1012.50 1012.38 1012.31
1010.26 1010.89 1011.67 1012.49 1013.23 1013.78 1014.10 1014.15 1013.98 1013.66 1013.29 1012.98 1012.81 1012.80 1012.97 1013.25 1013.58 1013.87 1014.04 1014.04 1013.86 1013.52 1013.08 1012.60 1012.17 1011.85 1011.66 1011.62 1011.70 1011.87 1012.07 1012.27 1012.43 1012.54 1012.61 1012.65 1012.68 1012.71 1012.76 1012.82 1012.88 1012.92 1012.92 1012.88 1012.79 1012.68 1012.57 1012.48 1012.43
1009.96 1010.50 1011.18 1011.91 1012.58 1013.11 1013.45 1013.57 1013.51 1013.32 1013.09 1012.91 1012.84 1012.91 1013.13 1013.44 1013.79 1014.09 1014.28 1014.30 1014.14 1013.82 1013.39 1012.91 1012.45 1012.07 1011.80 1011.67 1011.65 1011.73 1011.86 1012.01 1012.15 1012.27 1012.37 1012.45 1012.52 1012.60 1012.69 1012.78 1012.86 1012.92 1012.95 1012.93 1012.88 1012.81 1012.73 1012.67 1012.64
1009.63 1010.06 1010.61 1011.22 1011.80 1012.29 1012.64 1012.83 1012.87 1012.82 1012.75 1012.70 1012.75 1012.91 1013.18 1013.52 1013.87 1014.17 1014.36 1014.39 1014.26 1013.97 1013.57 1013.12 1012.66 1012.26 1011.96 1011.77 1011.68 1011.69 1011.75 1011.85 1011.96 1012.07 1012.17 1012.27 1012.38 1012.49 1012.61 1012.74 1012.85 1012.94 1013.00 1013.03 1013.02 1012.98 1012.94 1012.90 1012.89
Thickness
5792 5794 5795 5784 5766 5755 5753 5765 5779 5781 5787 5798 5804 5799 5787 5780 5771 5759 5782 5796 5794 5789 5784 5780 5778 5776 5774 5773 5771 5769 5768 5766 5765 5763 5761 5760 5759 5758 5756 5755 5755 5754 5753 5753 5752 5752 5752 5752 5752
5792 5794 5787 5773 5754 5746 5750 5768 5776 5783 5793 5801 5802 5798 5788 5782 5786 5781 5786 5793 5792 5787 5782 5777 5774 5773 5771 5769 5768 5766 5765 5763 5762 5760 5759 5757 5756 5755 5754 5753 5752 5751 5750 5750 5749 5749 5749 5748 5748
5790 5791 5775 5763 5755 5751 5755 5772 5780 5791 5800 5800 5795 5794 5786 5780 5785 5783 5788 5793 5790 5785 5779 5774 5771 5769 5768 5766 5764 5763 5762 5760 5759 5758 5756 5755 5753 5752 5751 5750 5750 5749 5748 5747 5747 5746 5746 5745 5745
5784 5777 5771 5759 5754 5768 5775 5781 5788 5789 5795 5800 5795 5785 5784 5791 5790 5788 5792 5792 5788 5783 5776 5771 5769 5766 5765 5763 5761 5760 5758 5757 5756 5755 5754 5752 5751 5750 5749 5748 5747 5746 5745 5744 5744 5743 5743 5742 5742
5778 5764 5754 5753 5761 5777 5787 5791 5792 5784 5787 5793 5789 5775 5771 5786 5793 5792 5792 5790 5785 5781 5775 5770 5767 5764 5762 5760 5758 5757 5755 5754 5753 5752 5751 5750 5749 5747 5746 5745 5744 5743 5742 5742 5741 5740 5740 5739 5739
5761 5758 5746 5746 5759 5775 5786 5792 5790 5783 5785 5789 5785 5774 5770 5785 5787 5789 5790 5787 5785 5780 5775 5769 5765 5763 5761 5758 5756 5754 5753 5752 5750 5750 5749 5747 5746 5746 5745 5743 5742 5741 5740 5739 5738 5738 5737 5737 5737
5751 5749 5746 5753 5756 5764 5779 5790 5785 5780 5780 5785 5789 5773 5770 5780 5786 5788 5787 5784 5782 5779 5775 5769 5765 5762 5759 5757 5755 5753 5751 5750 5749 5748 5747 5746 5745 5744 5743 5741 5739 5738 5737 5736 5736 5735 5735 5734 5734
5758 5748 5746 5752 5751 5757 5779 5787 5788 5783 5780 5794 5794 5772 5764 5776 5786 5786 5784 5781 5779 5777 5775 5772 5768 5764 5760 5757 5755 5753 5751 5749 5748 5746 5746 5745 5744 5743 5742 5739 5738 5736 5735 5734 5733 5733 5732 5732 5732
5759 5739 5735 5746 5750 5757 5777 5779 5785 5792 5787 5788 5790 5784 5781 5785 5785 5780 5776 5774 5773 5774 5774 5772 5770 5766 5763 5759 5756 5753 5751 5749 5747 5746 5744 5744 5744 5743 5741 5738 5736 5735 5733 5732 5731 5730 5730 5730 5731
5745 5730 5740 5756 5763 5765 5774 5776 5780 5780 5774 5774 5776 5781 5784 5782 5779 5773 5770 5768 5768 5768 5771 5771 5769 5766 5763 5761 5756 5754 5752 5749 5748 5746 5744 5744 5743 5741 5739 5736 5735 5733 5731 5730 5728 5728 5728 5728 5729
5744 5737 5749 5758 5768 5773 5773 5776 5783 5773 5762 5769 5770 5773 5777 5777 5775 5773 5771 5770 5769 5769 5769 5769 5769 5766 5762 5759 5756 5753 5751 5749 5748 5745 5743 5742 5740 5738 5736 5734 5732 5731 5729 5727 5726 5725 5725 5726 5727
5742 5748 5754 5758 5767 5770 5771 5775 5775 5773 5769 5779 5781 5780 5776 5774 5773 5772 5771 5770 5770 5768 5767 5768 5767 5764 5761 5757 5754 5753 5750 5748 5746 5743 5741 5739 5737 5735 5733 5731 5730 5728 5726 5725 5723 5722 5723 5723 5723
5739 5746 5755 5762 5768 5770 5772 5771 5772 5773 5780 5784 5783 5779 5775 5774 5774 5775 5775 5772 5770 5766 5765 5764 5764 5762 5759 5755 5752 5752 5748 5745 5743 5740 5738 5736 5734 5731 5730 5728 5727 5725 5723 5721 5719 5719 5719 5718 5719
5741 5747 5754 5762 5765 5769 5766 5768 5771 5771 5781 5780 5777 5775 5775 5774 5775 5773 5772 5770 5769 5766 5765 5763 5762 5760 5758 5754 5751 5749 5746 5743 5741 5738 5736 5734 5732 5729 5727 5724 5722 5720 5719 5717 5715 5714 5713 5713 5714
5747 5740 5746 5756 5762 5766 5764 5756 5764 5776 5779 5775 5774 5774 5774 5775 5776 5774 5774 5772 5771 5768 5766 5762 5760 5758 5755 5751 5748 5746 5744 5741 5738 5736 5733 5732 5730 5727 5723 5720 5717 5716 5715 5713 5711 5710 5708 5708 5708
5738 5732 5727 5749 5759 5764 5754 5738 5763 5778 5775 5771 5772 5773 5772 5774 5777 5777 5777 5775 5773 5770 5765 5762 5760 5756 5752 5748 5745 5743 5741 5738 5736 5733 5730 5728 5725 5723 5720 5716 5713 5712 5710 5708 5706 5704 5701 5701 5701
5723 5718 5725 5742 5760 5763 5753 5742 5762 5776 5773 5769 5771 5771 5772 5773 5776 5777 5778 5776 5773 5770 5766 5761 5758 5754 5750 5746 5743 5740 5738 5735 5733 5730 5726 5723 5721 5719 5717 5713 5711 5708 5706 5703 5702 5699 5697 5695 5695
5713 5724 5731 5738 5754 5758 5750 5749 5760 5772 5773 5770 5770 5771 5771 5771 5774 5777 5777 5775 5772 5769 5765 5761 5756 5753 5748 5744 5742 5738 5735 5733 5730 5727 5723 5720 5718 5716 5714 5711 5708 5705 5702 5699 5697 5695 5694 5693 5693
5730 5732 5734 5746 5762 5756 5749 5748 5757 5768 5769 5768 5769 5769 5769 5771 5776 5777 5774 5773 5769 5766 5763 5759 5754 5750 5745 5740 5736 5732 5729 5728 5727 5724 5721 5718 5716 5713 5711 5708 5705 5702 5699 5696 5694 5692 5689 5689 5691
5733 5733 5738 5749 5762 5755 5748 5749 5758 5765 5766 5768 5769 5769 5770 5770 5771 5771 5771 5769 5766 5763 5761 5759 5755 5750 5745 5740 5737 5734 5730 5728 5725 5723 5720 5717 5714 5711 5709 5705 5702 5700 5697 5694 5692 5689 5686 5686 5687
5731 5736 5739 5744 5754 5756 5748 5739 5749 5761 5767 5769 5770 5770 5771 5771 5767 5767 5767 5764 5763 5761 5759 5758 5754 5750 5745 5741 5737 5733 5728 5725 5722 5720 5718 5717 5713 5710 5706 5704 5701 5699 5696 5692 5690 5687 5684 5681 5683
5726 5746 5748 5748 5741 5735 5743 5716 5736 5751 5754 5759 5762 5765 5766 5768 5768 5766 5764 5762 5762 5761 5761 5759 5754 5750 5745 5741 5734 5729 5723 5719 5719 5718 5717 5716 5713 5710 5706 5703 5700 5698 5695 5692 5689 5687 5685 5682 5678
5736 5755 5752 5750 5744 5737 5741 5727 5729 5746 5742 5749 5756 5760 5762 5765 5764 5762 5762 5761 5762 5761 5759 5756 5752 5748 5744 5739 5734 5728 5724 5722 5721 5719 5717 5715 5713 5710 5707 5703 5700 5698 5695 5692 5689 5687 5685 5682 5679
5751 5751 5749 5748 5740 5716 5734 5727 5720 5738 5743 5748 5754 5757 5759 5761 5761 5760 5761 5759 5758 5757 5755 5752 5748 5744 5741 5737 5734 5729 5725 5722 5719 5717 5715 5713 5712 5710 5707 5704 5701 5698 5695 5692 5690 5687 5685 5683 5681
5748 5735 5717 5710 5704 5711 5742 5733 5727 5748 5756 5755 5752 5754 5756 5757 5756 5754 5753 5752 5751 5751 5749 5748 5744 5740 5738 5736 5733 5730 5727 5724 5721 5718 5715 5712 5710 5708 5707 5705 5701 5698 5695 5693 5691 5688 5686 5684 5682
5742 5734 5709 5696 5699 5719 5742 5731 5735 5755 5759 5759 5757 5754 5753 5752 5751 5750 5750 5749 5748 5748 5746 5745 5742 5739 5737 5734 5732 5731 5729 5725 5723 5720 5717 5714 5712 5710 5709 5705 5702 5699 5697 5694 5691 5688 5687 5685 5684
5739 5730 5731 5718 5723 5720 5732 5732 5740 5752 5752 5752 5750 5748 5746 5747 5747 5747 5747 5748 5747 5746 5745 5743 5741 5738 5736 5734 5732 5730 5729 5726 5723 5721 5719 5716 5715 5713 5710 5707 5703 5701 5698 5695 5692 5688 5687 5686 5684
5750 5744 5732 5721 5714 5712 5724 5724 5726 5736 5739 5743 5743 5741 5742 5744 5745 5745 5745 5745 5745 5745 5744 5743 5741 5738 5736 5734 5732 5731 5728 5726 5724 5721 5718 5716 5715 5713 5710 5707 5705 5702 5699 5697 5693 5690 5688 5686 5685
5748 5744 5744 5740 5742 5727 5714 5723 5754 5747 5745 5742 5741 5741 5740 5740 5740 5741 5742 5743 5743 5742 5741 5740 5738 5736 5734 5733 5731 5729 5727 5726 5724 5720 5718 5717 5715 5714 5711 5708 5706 5703 5700 5698 5694 5691 5689 5687 5686
5762 5758 5753 5736 5741 5745 5729 5721 5760 5755 5751 5746 5742 5740 5740 5739 5739 5739 5739 5739 5739 5738 5737 5736 5736 5733 5732 5731 5730 5728 5727 5724 5722 5720 5719 5717 5715 5714 5713 5710 5707 5704 5702 5699 5695 5691 5690 5687 5686